Tracking 31027 objects as of 19-Jul-2025
HD Live streaming from Space Station
objects crossing your sky now

FENGYUN 1C DEB

Track FENGYUN 1C DEB now!
10-day predictions


NORAD ID: 31680
Int'l Code: 1999-025CCN
Perigee: 466.4 km
Apogee: 591.9 km
Inclination: 99.8 °
Period: 95.1 minutes
Semi major axis: 6900 km
RCS: 0.0075 m2 (small)
Launch date: May 10, 1999
Source: People's Republic of China (PRC)
Launch site: Taiyaun Space Center, China (TSC)

Note: This is SATELLITE DEBRIS
Your satellite tracking list
STARLINK-1578
Track 1 satellite(s)




NASA's NSSDC Master Catalog

Two Line Element Set (TLE):
1 31680U 99025CCN 25196.91098856  .00014989  00000-0  73494-3 0  9993
2 31680  99.8464 259.5958 0090914  57.8949 303.1060 15.14652014979173
Source of the keplerian elements: AFSPC